Wind_Speed
36 32 28 26 22 19 18 15 15 15 13 11 11 10 11 11 12 12 12 11 10 9
34 33 31 26 23 20 18 17 16 15 13 12 12 11 11 11 12 12 11 11 10 9
34 32 28 27 24 21 19 18 17 16 14 13 13 13 13 13 13 13 12 11 10 9
33 32 28 26 24 22 20 18 18 17 16 16 15 15 14 14 14 12 11 11 9 9
35 30 30 27 26 24 21 20 19 18 18 17 17 17 16 15 14 11 11 10 9 8
37 33 32 30 28 25 22 21 21 20 19 18 19 18 17 15 14 13 11 10 9 8
38 37 33 31 29 27 25 23 23 21 20 20 20 19 19 18 16 14 12 10 9 7
38 36 33 32 30 29 27 25 23 24 23 22 21 21 21 19 17 15 13 12 10 8
38 37 35 33 32 31 28 26 25 25 25 26 23 21 21 18 17 15 13 12 11 9
37 38 37 33 33 33 31 28 28 27 27 26 25 25 23 20 17 16 15 13 11 9
37 35 35 35 34 34 33 30 30 29 28 27 26 26 24 22 19 18 16 14 12 10
38 37 36 35 34 36 35 33 31 30 30 30 28 27 25 24 22 19 17 16 13 11
38 37 36 33 36 39 36 34 32 32 31 30 29 29 28 26 24 21 20 18 16 13
41 40 38 31 39 41 36 35 34 34 32 32 32 31 30 27 24 21 21 19 17 15
Wind_Direction
224 228 234 230 232 230 236 238 237 235 231 225 216 205 193 186 181 175 171 168 167 166
226 229 228 220 221 224 227 230 227 227 221 212 204 197 189 182 178 167 161 159 155 151
230 226 217 221 219 221 223 224 223 219 209 206 198 191 183 179 173 169 157 152 147 140
229 219 215 218 221 220 223 222 222 213 207 201 195 187 183 179 172 169 161 149 143 135
225 217 216 219 218 219 220 219 217 211 205 197 192 186 184 183 172 169 161 148 140 131
222 219 217 215 215 216 218 217 210 207 205 198 192 186 181 183 177 171 163 154 144 138
221 219 215 213 214 218 216 214 209 205 202 198 193 188 186 185 181 177 170 162 154 145
219 217 214 212 214 217 216 214 210 204 197 196 196 194 191 190 187 185 177 170 165 156
216 216 213 211 215 214 213 213 209 205 202 196 195 196 194 195 190 186 183 179 173 168
215 212 211 210 214 216 214 211 208 208 205 202 197 196 194 191 192 192 188 185 181 175
214 212 213 214 214 216 217 214 211 207 208 204 201 199 195 191 192 194 192 191 188 182
216 215 215 215 216 217 216 213 212 210 208 205 202 199 200 197 196 198 198 196 193 187
221 220 220 222 220 218 219 217 212 210 210 210 205 203 205 204 202 200 200 199 195 190
223 229 227 227 222 216 214 217 214 212 210 210 209 208 209 208 206 207 203 202 200 194
Height
1508 1514 1517 1519 1524 1526 1531 1533 1535 1538 1539 1539 1540 1542 1542 1543 1546 1548 1549 1549 1551 1552
1505 1508 1511 1515 1519 1522 1526 1530 1532 1535 1537 1538 1539 1541 1542 1544 1546 1548 1548 1550 1551 1552
1501 1504 1508 1512 1516 1519 1524 1527 1530 1532 1535 1537 1538 1540 1542 1543 1545 1548 1548 1550 1552 1553
1496 1500 1506 1510 1514 1518 1522 1525 1528 1529 1532 1534 1536 1538 1541 1543 1545 1547 1548 1550 1552 1554
1492 1497 1502 1507 1511 1516 1519 1522 1525 1529 1531 1533 1535 1537 1539 1542 1545 1546 1547 1550 1552 1554
1486 1491 1497 1503 1508 1513 1517 1520 1523 1525 1531 1532 1535 1536 1538 1541 1543 1545 1547 1549 1552 1554
1481 1487 1493 1499 1504 1509 1513 1517 1520 1523 1527 1531 1534 1535 1537 1540 1542 1544 1547 1549 1552 1554
1478 1484 1490 1496 1500 1505 1511 1515 1516 1520 1523 1528 1532 1534 1536 1539 1540 1544 1546 1548 1551 1553
1475 1481 1486 1491 1497 1502 1507 1511 1515 1519 1522 1523 1527 1533 1536 1538 1540 1543 1545 1547 1550 1552
1468 1475 1483 1484 1493 1500 1502 1507 1511 1517 1520 1523 1525 1527 1531 1534 1539 1541 1544 1546 1548 1551
1464 1470 1476 1482 1484 1493 1500 1503 1508 1511 1518 1521 1523 1527 1529 1532 1536 1539 1541 1545 1546 1549
1462 1465 1469 1475 1482 1490 1494 1500 1504 1509 1514 1517 1521 1524 1527 1529 1532 1536 1539 1542 1545 1547
1460 1463 1465 1470 1475 1483 1490 1494 1499 1505 1510 1515 1516 1519 1523 1525 1527 1531 1535 1539 1542 1544
1454 1459 1465 1465 1469 1477 1480 1492 1496 1503 1506 1510 1513 1515 1519 1522 1523 1527 1531 1535 1539 1541